TOURFACTS.DK  
Stats and Facts from Tour de France.

Tour de France 2017 starts in 5 days
  Riders   Stages   Teams   Summits   Yearly  


 
Search by year

 After:  2016 - Stage 21:
  14626 starters.
  5086 different riders.
  634 teams.
  2211 stages.
  454 restdays.
  436049.60 km.
  5622 abandonnees.


Top 3
Christopher Froome89:04:48
Romain Bardet89:08:53
Nairo Quintana89:09:09
Rafal Majka209 pt.
Thomas De Gendt130 pt.
Jarlinson Pantano ..121 pt.
Peter Sagan470 pt.
Marcel Kittel228 pt.
Michael Matthews199 pt.
Adam Yates89:09:30
Louis Meintjes89:11:46
Emanuel Buchmann89:52:28
Facts from Tour de France 1938
  |   Stages.  |   Stage winners.  |   Days in yellow  |   Average speed.  |   Route.  |   Teams.  |   All riders.  |   Rookies.  |   Withdrawls.  |  

  |   GC.  |   Polka  |   Green  |   White  |   Summits. (In tour)  |   Summits. (Points)  |   Miscellaneous.  |  

Stage 20b on 29 - 07 - 1938
         Owning:    Gino Bartali    
Pick a stage:  1 2 3 4a 4b 4c 5 6a 6b 7 8 9 10a 10b 10c 11 12 13 14 15 16 17a 17b 18 19 20a 20b 20c 21
  LaonSaint-Quentin | Dist: 42.00 km.

Average speed for all riders in stage:  36,759 km./hr.
    Place:Name:Team:Time:Km/h:
BELFélicien VervaeckeBELBelgium01:04:40  +  00:00:00=38,969 
BELEdward VissersBELBelgium01:05:01  +  00:00:21=38,759 
FRAVictor CossonFRAFrance01:05:45  +  00:01:05=38,327 
4 ITAGiordano CotturITAItaly01:05:56  +  00:01:16=38,220 
5 BELSylvère MaesBELBelgium01:05:58  +  00:01:18=38,201 
6 BELJules LowieBELBelgium01:06:19  +  00:01:39=37,999 
7 LUXArsène MerschLUXLuxembourg01:06:23  +  00:01:43=37,961 
8 ITAGino BartaliITAItaly01:06:30  +  00:01:50=37,895 
9 FRAJean FréchautFRAFrance01:06:35  +  00:01:55=37,847 
10 FRARobert TanneveauFRACadets01:06:37  +  00:01:57=37,828 
11 FRAYvan MarieFRACadets01:06:45  +  00:02:05=37,753 
12 ITAMario ViciniITAItaly01:06:55  +  00:02:15=37,659 
13 FRAPierre GallienFRAFrance01:06:59  +  00:02:19=37,621 
14 ITAGlauco ServadeiITAItaly01:07:03  +  00:02:23=37,584 
15 ITAOreste BernardoniFRABluets01:07:14  +  00:02:34=37,481 
16 FRAJean FontenayFRACadets01:07:19  +  00:02:39=37,435 
17 BELMarcel KintBELBelgium01:07:20  +  00:02:40=37,426 
18 ITADante GianelloFRABluets01:07:27  +  00:02:47=37,361 
19 BELFrançois NeuvilleBELBelgium01:07:29  +  00:02:49=37,343 
20 FRAAntonin MagneFRAFrance01:07:44  +  00:03:04=37,205 
21 ESPMariano CañardoESPSpain01:07:56  +  00:03:16=37,095 
22 FRAMathias ClemensLUXLuxembourg01:07:58  +  00:03:18=37,077 
23 FRAJean-Marie GoasmatFRAFrance01:07:58  +  00:03:18=37,077 
24 FRARaymond PassatFRACadets01:08:00  +  00:03:20=37,059 
25 BELAlbertin DisseauxBELBelgium01:08:04  +  00:03:24=37,023 
26 FRAPierre JaminetFRAFrance01:08:12  +  00:03:32=36,950 
27 DEUHerbert HauswaldDEUGermany01:08:12  +  00:03:32=36,950 
28 LUXFrançois NeuensLUXLuxembourg01:08:13  +  00:03:33=36,941 
29 FRALucien Le GuevelFRABluets01:08:14  +  00:03:34=36,932 
30 DEUJosef ArentsDEUGermany01:08:15  +  00:03:35=36,923 
31 ITAVasco BergamaschiITAItaly01:08:21  +  00:03:41=36,869 
32 NLDJanus HellemonsNLDHolland01:08:29  +  00:03:49=36,797 
33 FRACamille LeroyFRABluets01:08:30  +  00:03:50=36,788 
34 DEUReinhold WendelDEUGermany01:08:35  +  00:03:55=36,744 
35 LUXJean MajerusLUXLuxembourg01:08:54  +  00:04:14=36,575 
36 FRAAndré LeducqFRACadets01:09:04  +  00:04:24=36,486 
37 FRAFabien GalateauFRACadets01:09:10  +  00:04:30=36,434 
38 ESPRafael RamosESPSpain01:09:11  +  00:04:31=36,425 
39 BELEmile Masson jr.BELBelgium01:09:11  +  00:04:31=36,425 
40 FRAAlbert BourlonFRABluets01:09:25  +  00:04:45=36,303 
41 ITAEnrico MolloITAItaly01:09:32  +  00:04:52=36,242 
42 DEUOtto WeckerlingDEUGermany01:09:33  +  00:04:53=36,233 
43 ESPJulián BerrenderoESPSpain01:09:45  +  00:05:05=36,129 
44 ITALuigi IntrozziITAItaly01:09:51  +  00:05:11=36,077 
45 ITAGiuseppe MartanoITAItaly01:09:59  +  00:05:19=36,009 
46 CHERaymond LouviotFRACadets01:10:25  +  00:05:45=35,787 
47 BELConstant LauwersBELBelgium01:10:36  +  00:05:56=35,694 
48 NLDTheo MiddelkampNLDHolland01:10:41  +  00:06:01=35,652 
49 ITANello TroggiITAItaly01:11:36  +  00:06:56=35,196 
50 FRARobert OubronFRACadets01:12:05  +  00:07:25=34,960 
51 CHEPaul EgliCHESwitzerland01:12:06  +  00:07:26=34,951 
52 BELRene WalschotBELBelgium01:12:33  +  00:07:53=34,735 
53 ITAAldo BiniITAItaly01:12:38  +  00:07:58=34,695 
54 CHEBruno CariniFRACadets01:13:33  +  00:08:53=34,262 
55 NLDAntoon Van SchendelNLDHolland01:13:49  +  00:09:09=34,139 


Todays birthdays.

1899  Ardito Bresciani
1908  Renato Scorticati
1927  Marcel Huber
1941  Roger Cooreman
1942  Luis Santamarina
1952  Ferdi Van den Haute
1956  Graziano Salvietti
1961  Massimo Ghirotto
1963  Thierry Marie
1968  Dominik Krieger
1979  Sébastien Joly
1981  Yohann Gène
1982  William Bonnet
1986  Marcel Wyss
1987  Rafael Valls Ferri
1988  Egor Silin